Location: Unspecified
(0.0000°N, 0.0000°E)
Time: 18:52:21
(UTC+00:00)

SR - All Passes

Search period start: 02 September 2014 00:00
Search period end: 12 September 2014 00:00
Orbit: 575 x 891 km, 66.7° (Epoch: 01 September)

Date Brightness Start Highest point End Pass type
(mag) Time Alt. Az. Time Alt. Az. Time Alt. Az.
02 Sep - 00:21:52 10° SSE 00:25:48 25° ESE 00:30:01 10° NE night (unlit)
02 Sep - 02:04:09 10° WSW 02:07:44 20° WNW 02:11:32 10° NNW night (unlit)
02 Sep - 12:48:43 10° NNW 12:53:57 67° ENE 12:58:44 10° SSE daylight
03 Sep - 01:14:45 10° SW 01:19:29 48° WNW 01:24:39 10° N night (unlit)
03 Sep - 12:01:24 10° NNE 12:05:44 26° ENE 12:09:47 10° SE daylight
03 Sep - 13:44:15 10° WNW 13:47:34 17° WSW 13:50:44 10° SSW daylight
04 Sep - 00:26:29 10° S 00:31:20 66° ESE 00:36:38 10° NNE night (unlit)
04 Sep - 12:54:36 10° NW 12:59:32 45° WSW 13:04:04 10° S daylight
04 Sep - 23:39:14 10° SSE 23:43:16 26° ESE 23:47:35 10° NE night (unlit)
05 Sep - 01:21:40 10° WSW 01:25:13 19° WNW 01:28:58 10° NNW night (unlit)
05 Sep - 12:06:13 10° NNW 12:11:25 69° ENE 12:16:10 10° SSE daylight
06 Sep - 00:32:12 10° SW 00:36:57 47° WNW 00:42:08 10° N night (unlit)
06 Sep - 11:18:51 10° NNE 11:23:12 27° ENE 11:27:15 10° SE daylight
06 Sep - 13:01:51 10° WNW 13:05:02 17° WSW 13:08:04 10° SSW daylight
06 Sep - 23:43:55 10° SSW 23:48:48 68° ESE 23:54:09 10° NNE night (unlit)
07 Sep - 10:34:13 10° ENE 10:34:53 10° ENE 10:35:33 10° ENE daylight
07 Sep - 12:12:07 10° NW 12:16:59 43° WSW 12:21:28 10° S daylight
07 Sep - 22:56:36 10° SSE 23:00:44 27° ESE 23:05:08 10° NE night (unlit)
08 Sep - 00:39:10 10° WSW 00:42:41 19° WNW 00:46:24 10° NNW night (unlit)
08 Sep - 11:23:42 10° NNW 11:28:53 71° ENE 11:33:36 10° SSE daylight
08 Sep - 22:12:24 10° ESE 22:12:40 10° ESE 22:12:56 10° ESE night (unlit)
08 Sep - 23:49:39 10° SW 23:54:25 46° WNW 23:59:36 10° N night (unlit)
09 Sep - 10:36:18 10° N 10:40:40 27° ENE 10:44:43 10° SE daylight
09 Sep - 12:19:27 10° WNW 12:22:29 16° WSW 12:25:22 10° SW daylight
09 Sep - 23:01:19 10° SSW 23:06:15 71° ESE 23:11:39 10° NNE night (unlit)
10 Sep - 09:51:22 10° NE 09:52:21 11° ENE 09:53:19 10° ENE daylight
10 Sep - 11:29:38 10° NW 11:34:26 41° WSW 11:38:51 10° S daylight
10 Sep - 22:13:58 10° SSE 22:18:10 28° ESE 22:22:41 10° NE night (unlit)
10 Sep - 23:56:39 10° WSW 00:00:08 18° WNW 00:03:49 10° NNW night (unlit)
11 Sep - 10:41:10 10° NNW 10:46:19 74° ENE 10:51:01 10° SSE daylight
11 Sep - 21:29:02 10° ESE 21:30:07 11° ESE 21:31:12 10° E night (unlit)
11 Sep - 23:07:05 10° SW 23:11:52 44° WNW 23:17:04 10° N night (unlit)
